FW0030 Weather Reports


time (UTC)temp
F
wind
direction
speed
knots
gust
knots
rain 1hr
in
rain 24hr
in
rain mn
in
humidity
%
barometer
mb
20260508034540 39 194 0.0 0.0 0.00 0.00 0.00 85 1013.1
20260508033041 39 251 0.0 0.0 0.00 0.00 0.00 83 1013.2
20260508031550 40 251 0.0 0.0 0.00 0.00 0.00 80 1013.2
20260508030049 40 251 0.0 0.0 0.00 0.00 0.00 80 1013.3
20260508024538 40 256 0.0 0.0 0.00 0.00 0.00 79 1013.4
20260508023043 41 262 0.0 0.0 0.00 0.00 0.00 78 1013.2
20260508021538 42 262 0.0 0.0 0.00 0.00 0.00 75 1013.2
20260508020038 43 262 0.0 0.0 0.00 0.00 0.00 72 1013.2
20260508014536 44 262 0.0 0.0 0.00 0.00 0.00 69 1013.1
20260508013036 45 262 0.0 0.0 0.00 0.00 0.00 65 1012.9
20260508011536 47 262 0.0 0.0 0.00 0.00 0.00 61 1012.9
20260508010035 49 262 0.0 0.0 0.00 0.00 0.00 57 1012.8
20260508004534 50 290 0.0 0.0 0.00 0.00 0.00 52 1012.8
20260508003034 51 264 0.0 0.0 0.00 0.00 0.00 51 1012.7
20260508001533 51 254 0.0 0.0 0.00 0.00 0.00 49 1012.4
20260508000032 52 314 0.0 0.0 0.00 0.00 0.00 48 1012.3
20260507234537 53 259 0.0 0.0 0.00 0.00 0.00 47 1012.3
20260507233031 53 273 0.0 0.0 0.00 0.00 0.00 46 1012.2
20260507231530 54 319 0.0 0.0 0.00 0.00 0.00 47 1012.1
20260507230030 54 316 0.0 0.0 0.00 0.00 0.00 47 1012.2
20260507224529 54 296 0.0 0.0 0.00 0.00 0.00 47 1012.1
20260507223028 54 281 0.0 0.0 0.00 0.00 0.00 50 1012.1
20260507221527 54 312 0.0 0.0 0.00 0.00 0.00 55 1012.1
20260507220026 53 302 0.0 0.0 0.00 0.00 0.00 54 1012.2
20260507214525 53 310 0.0 0.0 0.00 0.00 0.00 58 1012.0
20260507213028 53 264 0.0 0.0 0.00 0.00 0.00 56 1011.9
20260507211524 54 310 0.0 0.0 0.00 0.00 0.00 55 1011.6
20260507210023 55 296 0.0 0.0 0.00 0.00 0.00 54 1011.5
20260507204523 55 308 0.0 0.0 0.00 0.00 0.00 53 1011.3
20260507203020 56 325 0.0 0.0 0.00 0.00 0.00 52 1011.3
20260507201521 55 11 0.0 0.0 0.00 0.00 0.00 49 1011.2
20260507200019 56 258 0.0 0.0 0.00 0.00 0.00 49 1011.3
20260507194522 56 318 0.0 0.0 0.00 0.00 0.00 47 1011.3
20260507193024 56 312 0.0 0.0 0.00 0.00 0.00 48 1011.4
20260507191518 56 333 0.0 0.0 0.00 0.00 0.00 51 1011.5
20260507190016 57 308 0.0 0.0 0.00 0.00 0.00 53 1011.4
20260507184515 57 333 0.0 0.0 0.00 0.00 0.00 48 1011.5
20260507183023 57 278 0.0 0.0 0.00 0.00 0.00 49 1011.5
20260507181513 57 15 0.0 0.0 0.00 0.00 0.00 49 1011.4
20260507180015 56 1 0.0 0.0 0.00 0.00 0.00 52 1011.4
20260507174513 56 293 0.0 0.0 0.00 0.00 0.00 50 1011.3
20260507173009 56 349 0.0 0.0 0.00 0.00 0.00 51 1011.5
20260507171509 56 252 0.0 0.0 0.00 0.00 0.00 49 1011.5
20260507170007 56 313 0.0 0.0 0.00 0.00 0.00 48 1011.7
20260507164508 57 275 0.0 0.0 0.00 0.00 0.00 47 1011.8
20260507163004 57 307 0.0 0.0 0.00 0.00 0.00 45 1011.8
20260507161608 57 325 0.0 0.0 0.00 0.00 0.00 47 1011.9
20260507160100 56 176 0.0 0.0 0.00 0.00 0.00 48 1012.0
20260507154554 55 259 0.0 0.0 0.00 0.00 0.00 48 1012.1
20260507153053 54 263 0.0 0.0 0.00 0.00 0.00 51 1012.3
20260507151550 55 271 0.0 0.0 0.00 0.00 0.00 49 1012.4
20260507150049 56 273 0.0 0.0 0.00 0.00 0.00 50 1012.4
20260507144543 55 32 0.0 0.0 0.00 0.00 0.00 50 1012.5
20260507143056 54 299 0.0 0.0 0.00 0.00 0.00 52 1012.6
20260507141553 54 276 0.0 0.0 0.00 0.00 0.00 48 1012.7
20260507140034 53 314 0.0 0.0 0.00 0.00 0.00 57 1013.0
20260507134529 52 304 0.0 0.0 0.00 0.00 0.00 62 1013.1
20260507133027 51 270 0.0 0.0 0.00 0.00 0.00 63 1013.3
20260507131523 51 266 0.0 0.0 0.00 0.00 0.00 68 1013.2
20260507130034 50 91 0.0 0.0 0.00 0.00 0.00 75 1013.2
20260507124516 46 48 0.0 0.0 0.00 0.00 0.00 84 1013.3
20260507123014 46 214 0.0 0.0 0.00 0.00 0.00 88 1013.2
20260507121509 43 219 0.0 0.0 0.00 0.00 0.00 91 1013.3
20260507120006 41 153 0.0 0.0 0.00 0.00 0.00 93 1013.2
20260507114504 40 224 0.0 0.0 0.00 0.00 0.00 94 1013.3
20260507113002 40 224 0.0 0.0 0.00 0.00 0.00 95 1013.3
20260507111559 39 214 0.0 0.0 0.00 0.00 0.00 95 1013.2
20260507110057 38 212 0.0 0.0 0.00 0.00 0.00 95 1013.1
20260507104557 0 0.0 0.0 0.00 0.00 0.00 1013.1
20260507103046 0 0.0 0.0 0.00 0.00 0.00 1013.0
20260507101542 0 0.0 0.0 0.00 0.00 0.00 1013.0
20260507100046 0 0.0 0.0 0.00 0.00 0.00 1012.8
20260507094533 0 155 0.0 0.0 0.00 0.01 0.00 96 1012.9
20260507093032 37 153 0.0 0.0 0.00 0.01 0.00 95 1013.0
20260507091535 37 150 0.0 0.0 0.00 0.01 0.00 95 1013.1
20260507090029 37 150 0.0 0.0 0.00 0.01 0.00 95 1013.0
20260507084530 37 150 0.0 0.0 0.00 0.10 0.00 95 1013.0
20260507083027 37 150 0.0 0.0 0.00 0.10 0.00 95 1013.2
20260507081526 36 149 0.0 0.0 0.00 0.10 0.00 95 1013.3
20260507080025 36 150 0.0 0.0 0.00 0.10 0.00 95 1013.3
20260507074525 37 149 0.0 0.0 0.00 0.19 0.00 94 1013.2
20260507073022 37 150 0.0 0.0 0.00 0.19 0.00 94 1013.2
20260507071526 37 150 0.0 0.0 0.00 0.19 0.00 93 1013.3
20260507070016 38 150 0.0 0.0 0.00 0.19 0.00 93 1013.5
20260507064526 38 150 0.0 0.0 0.00 0.30 0.00 93 1013.5
20260507063013 39 150 0.0 0.0 0.00 0.30 0.00 92 1013.6
20260507061509 39 150 0.0 0.0 0.00 0.30 0.00 91 1013.8
20260507060005 40 150 0.0 0.0 0.00 0.33 0.00 89 1013.7
20260507054501 41 200 0.0 0.0 0.00 0.33 0.00 88 1014.0
20260507053110 41 200 0.0 0.0 0.00 0.33 0.00 88 1014.0
20260507051608 42 200 0.0 0.0 0.00 0.33 0.00 88 1014.0
20260507050056 42 200 0.0 0.0 0.00 0.33 0.00 88 1014.2
20260507044558 42 200 0.0 0.0 0.00 0.39 0.00 88 1014.2
20260507043055 42 200 0.0 0.0 0.00 0.39 0.00 87 1014.3
20260507041552 42 202 0.0 0.0 0.00 0.39 0.00 86 1014.4
20260507040047 42 201 0.0 0.0 0.00 0.39 0.00 85 1014.6